This is the latest recevied weather packets stored in our database for station/object K2BIG. If no packets are shown the sender has not sent any weather packets the latest 10 day(s).
| Time | Temp. | Humidity | Pressure | Rain* | Wind** | Luminosity | Snow |
|---|---|---|---|---|---|---|---|
| 1777566315 | 15° C | 82% | 1006.7 hPa | 0 mm | - | - | - |
| 1777566015 | 14.44° C | 82% | 1006.8 hPa | 0 mm | - | - | - |
| 1777565715 | 14.44° C | 82% | 1006.9 hPa | 0 mm | - | - | - |
| 1777565415 | 14.44° C | 81% | 1007 hPa | 0 mm | - | - | - |
| 1777565115 | 14.44° C | 84% | 1007 hPa | 0 mm | - | - | - |
| 1777564815 | 13.89° C | 86% | 1007.1 hPa | 0 mm | - | - | - |
| 1777564515 | 13.89° C | 86% | 1007.1 hPa | 0 mm | - | - | - |
| 1777564215 | 13.33° C | 88% | 1007.2 hPa | 0 mm | - | - | - |
| 1777563915 | 13.33° C | 87% | 1007.1 hPa | 0 mm | - | - | - |
| 1777563615 | 13.33° C | 87% | 1007.1 hPa | 0 mm | - | - | - |
| 1777563315 | 12.78° C | 89% | 1007.1 hPa | 0 mm | - | - | - |
| 1777563015 | 12.78° C | 93% | 1007.3 hPa | 0 mm | - | - | - |
| 1777562715 | 12.78° C | 94% | 1007.2 hPa | 0 mm | - | - | - |
| 1777562415 | 12.22° C | 95% | 1007.1 hPa | 0 mm | - | - | - |
| 1777562115 | 12.22° C | 96% | 1007.1 hPa | 0 mm | - | - | - |
| 1777561815 | 11.67° C | 96% | 1007.1 hPa | 0 mm | - | - | - |
| 1777561515 | 11.67° C | 96% | 1007.1 hPa | 0 mm | - | - | - |
| 1777561215 | 11.11° C | 96% | 1007 hPa | 0 mm | - | - | - |
| 1777560915 | 11.11° C | 96% | 1007.1 hPa | 0 mm | - | - | - |
| 1777560615 | 11.11° C | 97% | 1007.2 hPa | 0 mm | - | - | - |
| 1777560315 | 11.11° C | 97% | 1007.3 hPa | 0 mm | - | - | - |
| 1777560015 | 11.11° C | 97% | 1007.3 hPa | 0 mm | - | - | - |
| 1777559715 | 11.11° C | 97% | 1007.2 hPa | 0 mm | - | - | - |
| 1777559415 | 11.11° C | 98% | 1007.1 hPa | 0 mm | - | - | - |
| 1777559115 | 11.11° C | 98% | 1007.1 hPa | 0 mm | - | - | - |
* Rain latest hour (hover to see other rain measurements)
** Current wind speed in m/s (hover to see current wind gust speed)